Location: Iesi
(43.5167°N, 13.2333°E)
Time: 02:26:58
(UTC+00:00)

Cosmos 1437 Rocket - Pass Details

Date: 08 August 2020
Orbit: 506 x 563 km, 81.2° (Epoch: 25 September)

Event Time Altitude Azimuth Distance (km) Brightness Sun altitude
Rises 20:28:55 0° 0° (N) 2,639 7.0 -19.8°
Reaches altitude 10° 20:31:19 10° 13° (NNE) 1,740 5.8 -20.1°
Enters shadow 20:34:11 26° 61° (ENE) 1,031 4.1 -20.5°
